Weather History for KBKD - May, 2013

Change the Weather History Date:

Sunday, May 26, 2013

  Actual Average (KABI) Record (KABI)
Temperature  
Mean Temperature 82 °F 76 °F  
Max Temperature 91 °F 87 °F 99 °F (1896)
Min Temperature 72 °F 64 °F 48 °F (1901)
Degree Days  
Heating Degree Days 0 0  
Month to date heating degree days 13  
Since 1 July heating degree days 2555  
Cooling Degree Days 16 11  
Month to date cooling degree days 209  
Year to date cooling degree days 342  
Growing Degree Days 32 (Base 50)    
Moisture  
Dew Point 65 °F    
Average Humidity 63    
Maximum Humidity 83    
Minimum Humidity 38    
Precipitation  
Precipitation 0.02 in 0.13 in 2.07 in (1914)
Month to date precipitation 2.55  
Year to date precipitation 8.31  
Sea Level Pressure  
Sea Level Pressure 29.98 in    
Wind  
Wind Speed 13 mph (SSE)    
Max Wind Speed 21 mph    
Max Gust Speed 29 mph    
Visibility 10 miles    
Events      
T = Trace of Precipitation, MM = Missing Value Source: NWS Daily Summary

Daily Weather History Graph

Daily Weather History Graph

Search for Another Location

Airport or City:

Trip Planner

Search our weather history database for the weather conditions in past years. The results will help you decide how hot, cold, wet, or windy it might be!

Date:

Astronomy

May. 26, 2013 Rise Set
Actual Time 6:30 AM CDT 8:35 PM CDT
Civil Twilight 6:02 AM CDT 9:02 PM CDT
Nautical Twilight 5:28 AM CDT 9:36 PM CDT
Astronomical Twilight 4:52 AM CDT 10:13 PM CDT
Moon 10:25 PM CDT (5/26) 8:00 AM CDT (5/26)
Length of Visible Light 15h 00m
Length of Day
14h 04m
Waning Gibbous, 96% of the Moon is Illuminated
May 26
Waning Gibbous
May 31
Last Quarter
Jun 8
New
Jun 16
First Quarter
Jun 23
Full

Hourly Weather History & Observations

Time (CDT) Temp. Heat Index Dew Point Humidity Pressure Visibility Wind Dir Wind Speed Gust Speed Precip Events Conditions
12:15 AM 74.3 °F - 65.7 °F 74% 30.05 in 10.0 mi SSE 15.0 mph 21.9 mph N/A   Clear
12:35 AM 73.8 °F - 65.8 °F 76% 30.05 in 10.0 mi SSE 11.5 mph 18.4 mph N/A   Clear
12:55 AM 73.4 °F - 66.2 °F 78% 30.06 in 10.0 mi SSE 11.5 mph 20.7 mph N/A   Clear
1:15 AM 73.0 °F - 66.2 °F 79% 30.06 in 10.0 mi SSE 10.4 mph 17.3 mph N/A   Clear
1:35 AM 72.7 °F - 66.2 °F 80% 30.05 in 10.0 mi SSE 12.7 mph 18.4 mph N/A   Clear
1:55 AM 72.5 °F - 66.2 °F 81% 30.04 in 10.0 mi South 12.7 mph 17.3 mph N/A   Clear
2:15 AM 72.0 °F - 66.2 °F 82% 30.05 in 10.0 mi South 12.7 mph - N/A   Clear
2:35 AM 72.0 °F - 66.4 °F 83% 30.04 in 10.0 mi South 15.0 mph 18.4 mph N/A   Scattered Clouds
2:55 AM 72.1 °F - 66.4 °F 82% 30.03 in 10.0 mi South 11.5 mph 16.1 mph N/A   Overcast
3:15 AM 72.1 °F - 66.6 °F 83% 30.02 in 10.0 mi South 11.5 mph 19.6 mph N/A   Scattered Clouds
3:35 AM 72.3 °F - 66.6 °F 82% 30.01 in 10.0 mi South 12.7 mph 21.9 mph N/A   Clear
3:55 AM 72.1 °F - 66.6 °F 83% 29.99 in 10.0 mi SSE 12.7 mph 17.3 mph N/A   Clear
4:15 AM 72.5 °F - 66.7 °F 82% 29.98 in 10.0 mi SSE 12.7 mph 18.4 mph N/A   Clear
4:35 AM 72.5 °F - 66.7 °F 82% 29.98 in 10.0 mi SSE 11.5 mph 21.9 mph N/A   Clear
4:55 AM 72.5 °F - 66.9 °F 83% 29.98 in 10.0 mi SSE 11.5 mph 19.6 mph N/A   Clear
5:15 AM 72.5 °F - 67.1 °F 83% 29.97 in 10.0 mi SSE 13.8 mph - N/A   Clear
5:35 AM 72.5 °F - 67.1 °F 83% 29.97 in 10.0 mi SSE 15.0 mph 24.2 mph N/A   Scattered Clouds
5:55 AM 72.9 °F - 67.1 °F 82% 29.97 in 10.0 mi SSE 16.1 mph 24.2 mph N/A   Mostly Cloudy
6:15 AM 72.7 °F - 67.1 °F 83% 29.97 in 10.0 mi SSE 13.8 mph 28.8 mph N/A   Mostly Cloudy
6:35 AM 72.9 °F - 67.1 °F 82% 29.98 in 10.0 mi SSE 15.0 mph 24.2 mph N/A   Mostly Cloudy
6:55 AM 72.9 °F - 67.1 °F 82% 30.00 in 10.0 mi SSE 10.4 mph 20.7 mph N/A   Scattered Clouds
7:15 AM 73.4 °F - 67.1 °F 81% 30.01 in 10.0 mi SSE 12.7 mph 19.6 mph N/A   Mostly Cloudy
7:35 AM 73.8 °F - 66.7 °F 79% 30.00 in 10.0 mi SSE 11.5 mph 19.6 mph 0.01 in   Mostly Cloudy
7:55 AM 74.3 °F - 66.7 °F 77% 30.00 in 10.0 mi SSE 16.1 mph 23.0 mph 0.01 in   Mostly Cloudy
8:15 AM 74.5 °F - 67.1 °F 78% 29.99 in 10.0 mi SSE 13.8 mph 20.7 mph N/A   Scattered Clouds
8:35 AM 75.0 °F - 66.9 °F 76% 29.99 in 10.0 mi SSE 15.0 mph 21.9 mph N/A   Scattered Clouds
8:55 AM 75.9 °F - 67.1 °F 74% 30.01 in 10.0 mi South 15.0 mph 23.0 mph N/A   Scattered Clouds
9:15 AM 76.8 °F - 66.9 °F 71% 30.01 in 10.0 mi SSE 11.5 mph 26.5 mph N/A   Scattered Clouds
9:35 AM 78.3 °F - 67.5 °F 69% 30.03 in 10.0 mi South 13.8 mph 19.6 mph N/A   Mostly Cloudy
9:55 AM 78.1 °F - 67.1 °F 69% 30.03 in 10.0 mi South 16.1 mph 21.9 mph N/A   Overcast
10:15 AM 78.3 °F - 67.1 °F 68% 30.03 in 10.0 mi SSE 13.8 mph 23.0 mph N/A   Overcast
10:35 AM 79.0 °F - 66.7 °F 66% 30.02 in 10.0 mi SSE 12.7 mph 24.2 mph N/A   Overcast
10:55 AM 79.0 °F - 66.6 °F 66% 30.03 in 10.0 mi South 13.8 mph 20.7 mph N/A   Overcast
11:15 AM 79.9 °F - 66.9 °F 64% 30.03 in 10.0 mi South 12.7 mph 20.7 mph N/A   Overcast
11:35 AM 82.4 °F 85.0 °F 67.3 °F 60% 30.03 in 10.0 mi South 11.5 mph 19.6 mph N/A   Overcast
11:55 AM 83.3 °F 85.7 °F 66.6 °F 57% 30.03 in 10.0 mi South 15.0 mph 23.0 mph N/A   Overcast
12:15 PM 84.0 °F 86.3 °F 66.2 °F 55% 30.03 in 10.0 mi South 12.7 mph 18.4 mph N/A   Mostly Cloudy
12:35 PM 85.5 °F 87.9 °F 66.6 °F 53% 30.03 in 10.0 mi South 17.3 mph 21.9 mph N/A   Mostly Cloudy
12:55 PM 86.4 °F 88.7 °F 66.4 °F 51% 30.02 in 10.0 mi South 13.8 mph 18.4 mph N/A   Scattered Clouds
1:15 PM 87.1 °F 88.9 °F 65.3 °F 48% 30.01 in 10.0 mi South 16.1 mph 23.0 mph N/A   Scattered Clouds
1:35 PM 87.8 °F 90.0 °F 65.7 °F 48% 30.00 in 10.0 mi SSE 17.3 mph 24.2 mph N/A   Scattered Clouds
1:55 PM 88.2 °F 89.9 °F 65.1 °F 46% 29.98 in 7.0 mi South 13.8 mph 21.9 mph N/A   Scattered Clouds
2:15 PM 88.9 °F 90.7 °F 65.3 °F 45% 29.98 in 10.0 mi South 12.7 mph 17.3 mph N/A   Scattered Clouds
2:35 PM 89.2 °F 90.9 °F 64.8 °F 44% 29.97 in 10.0 mi South 16.1 mph 21.9 mph N/A   Scattered Clouds
2:55 PM 89.6 °F 91.5 °F 64.8 °F 44% 29.96 in 10.0 mi South 13.8 mph 25.3 mph N/A   Scattered Clouds
3:15 PM 90.0 °F 91.7 °F 64.6 °F 43% 29.95 in 10.0 mi South 13.8 mph 20.7 mph N/A   Clear
3:35 PM 90.5 °F 91.8 °F 63.5 °F 41% 29.95 in 10.0 mi South 17.3 mph 23.0 mph N/A   Clear
3:55 PM 90.9 °F 92.0 °F 63.5 °F 40% 29.94 in 10.0 mi SSE 19.6 mph 24.2 mph N/A   Scattered Clouds
4:15 PM 90.5 °F 91.8 °F 63.5 °F 41% 29.93 in 10.0 mi SSE 15.0 mph 23.0 mph N/A   Scattered Clouds
4:35 PM 91.4 °F 92.4 °F 63.0 °F 39% 29.93 in 10.0 mi South 16.1 mph 21.9 mph N/A   Scattered Clouds
4:55 PM 91.0 °F 91.9 °F 63.0 °F 39% 29.92 in 10.0 mi South 13.8 mph 21.9 mph N/A   Clear
5:15 PM 90.7 °F 91.3 °F 62.6 °F 39% 29.92 in 10.0 mi South 16.1 mph 24.2 mph N/A   Clear
5:35 PM 90.5 °F 91.4 °F 62.8 °F 40% 29.91 in 10.0 mi SSE 16.1 mph 23.0 mph N/A   Clear
5:55 PM 90.5 °F 91.8 °F 63.5 °F 41% 29.90 in 10.0 mi SSE 20.7 mph - N/A   Clear
6:15 PM 90.1 °F 90.9 °F 62.6 °F 40% 29.89 in 10.0 mi SSE 13.8 mph 25.3 mph 0.01 in   Clear
6:35 PM 89.8 °F 89.7 °F 61.3 °F 38% 29.89 in 10.0 mi SSE 18.4 mph 28.8 mph 0.01 in   Clear
6:55 PM 88.7 °F 88.8 °F 61.2 °F 40% 29.89 in 10.0 mi SSE 12.7 mph 25.3 mph 0.01 in   Clear
7:15 PM 87.8 °F 87.6 °F 60.8 °F 40% 29.89 in 10.0 mi South 15.0 mph 24.2 mph N/A   Clear
7:35 PM 87.1 °F 87.0 °F 60.6 °F 41% 29.89 in 10.0 mi South 13.8 mph 26.5 mph N/A   Clear
7:55 PM 86.2 °F 86.6 °F 62.1 °F 44% 29.90 in 10.0 mi South 15.0 mph 20.7 mph N/A   Clear
8:15 PM 85.1 °F 85.9 °F 62.8 °F 47% 29.90 in 10.0 mi South 15.0 mph 21.9 mph N/A   Clear
8:35 PM 84.2 °F 85.4 °F 63.5 °F 50% 29.91 in 10.0 mi South 12.7 mph 19.6 mph N/A   Clear
8:55 PM 83.5 °F 84.7 °F 63.9 °F 51% 29.91 in 10.0 mi South 10.4 mph 18.4 mph N/A   Clear
9:15 PM 82.8 °F 84.3 °F 64.4 °F 54% 29.92 in 10.0 mi South 6.9 mph - N/A   Clear
9:35 PM 81.9 °F 83.5 °F 64.9 °F 56% 29.93 in 10.0 mi SSE 8.1 mph - N/A   Clear
9:55 PM 81.3 °F 83.2 °F 65.3 °F 58% 29.93 in 10.0 mi South 9.2 mph - N/A   Clear
10:15 PM 81.0 °F 82.9 °F 65.3 °F 59% 29.94 in 10.0 mi South 9.2 mph - N/A   Clear
10:35 PM 80.2 °F 82.2 °F 65.5 °F 61% 29.94 in 10.0 mi SSE 8.1 mph - N/A   Clear
10:55 PM 79.0 °F - 65.8 °F 64% 29.95 in 10.0 mi SE 6.9 mph - N/A   Clear
11:15 PM 79.2 °F - 66.9 °F 66% 29.96 in 10.0 mi SSE 9.2 mph - N/A   Clear
11:35 PM 79.0 °F - 67.5 °F 68% 29.96 in 10.0 mi South 10.4 mph 16.1 mph N/A   Clear
11:55 PM 78.4 °F - 67.5 °F 69% 29.96 in 10.0 mi SSE 11.5 mph 16.1 mph N/A   Clear